Pincher Creek Airport
CZPC : now visible

Airfield :











YOU CAN JOIN US ON...

 
LOGIN :

Register | Disclaimer

   EN    FR    IT 

 









Legend :    VFR   Marginal VFR   IFR   Intensive IFR   Very Intensive IFR
Visi :
Ceiling :
>= 8 km
>= 3000ft
5 to 8 km
1000 to 3000 ft
1500m to 5 km
500 to 1000 ft
800 to 1500m
200 to 500 ft
< 800m
< 200 ft
Symbols :   Thunderstorms  Fog  Heavy snow  Heavy precipitations  Wind > 20 kt






- Airport Elevation : 3903 ft


CZPC - Pincher Creek

CURRENT METAR :
  • 231925Z AUTO 27026G37KT 6SM HZ SCT037 23/M00 A3006 RMK SLP150 DENSITY ALT 5600FT

EXPIRED METARs :
  • 231900Z AUTO 27029G38KT 5SM HZ FEW031 SCT037 SCT230 23/M01 A3006 RMK SLP160 DENSITY ALT 5600FT
  • 231859Z AUTO 26030G40KT 5SM HZ FEW031 SCT037 SCT230 23/M01 A3006 RMK SLP152 DENSITY ALT 5600FT
  • 231800Z AUTO 27025G30KT 7SM SCT200 23/00 A3008 RMK SLP164 DENSITY ALT 5500FT
  • 231733Z AUTO 26023G28KT 6SM HZ FEW036 BKN210 22/01 A3008 RMK SLP161 DENSITY ALT 5400FT
  • 231700Z AUTO 24013G19KT 6SM HZ FEW039 SCT210 21/01 A3009 RMK SLP170 DENSITY ALT 5400FT

TAF N/A
CZEG FIR / North America



MET'MAP, your aeronautical weather chart ! - Copyright ORBIFLY December 2007 - Disclaimer

ORBIFLY MET'MAP TEAM :

Programming & Development : Alexandra Zaïnal
Concept & original design : Baudouin d'Aumeries
Assistance for programming : Marc-Olivier Méhu
Technical & hardware support : Manuel Goepfert

Contact : metmap@orbifly.com




SOURCES & CREDITS :

   NOAA       Earth
Advisory